COSMOS 2413 (712) 1 28509U 04053B 12136.36721454 -.00000059 00000-0 10000-3 0 407 2 28509 63.3333 243.4501 0005317 156.9924 247.9458 2.13102424 57479 COSMOS 2419 (714) 1 28915U 05050A 12137.08669594 .00000087 00000-0 00000+0 0 7897 2 28915 64.9009 128.4557 0017929 341.5226 198.5004 2.13099570 49734 COSMOS 2425 (716) 1 29670U 06062A 12136.44063806 -.00000072 00000-0 10000-3 0 5004 2 29670 65.8517 7.1781 0023004 351.0297 124.4211 2.13105335 41922 COSMOS 2426 (717) 1 29671U 06062B 12135.55333164 -.00000076 00000-0 10000-3 0 5175 2 29671 65.8680 7.2563 0016504 162.4636 224.0391 2.13103397 41912 COSMOS 2424 (715) 1 29672U 06062C 12136.73963387 -.00000070 00000-0 10000-3 0 5223 2 29672 65.8537 7.1726 0016167 160.9237 235.5273 2.13103060 41934 COSMOS 2433 (720) 1 32275U 07052A 12135.13246728 .00000090 00000-0 10000-3 0 2455 2 32275 64.9136 128.2650 0005067 274.6442 116.8469 2.13102412 35415 COSMOS 2432 (719) 1 32276U 07052B 12136.78572689 .00000089 00000-0 10000-3 0 2319 2 32276 64.9266 128.2513 0015102 331.3207 201.8578 2.13102119 35442 COSMOS 2434 (721) 1 32393U 07065A 12137.00893941 -.00000070 00000-0 00000+0 0 804 2 32393 65.4765 7.1855 0005014 98.9404 187.1521 2.13102887 34155 COSMOS 2435 (722) 1 32394U 07065B 12137.07231818 -.00000069 00000-0 10000-3 0 9959 2 32394 65.4805 7.1771 0020957 3.5936 286.3841 2.13103998 34097 COSMOS 2436 (723) 1 32395U 07065C 12136.20551037 -.00000074 00000-0 10000-3 0 16 2 32395 65.4896 7.2320 0018154 358.0505 123.2495 2.13103206 34079 COSMOS 2442 (724) 1 33378U 08046A 12137.16262737 .00000086 00000-0 10000-3 0 269 2 33378 64.8286 127.7201 0027004 329.8298 223.3235 2.13102218 28318 COSMOS 2443 (725) 1 33379U 08046B 12136.19162406 .00000090 00000-0 10000-3 0 124 2 33379 64.8364 127.7979 0019741 192.0045 202.2414 2.13102425 28301 COSMOS 2444 (726) 1 33380U 08046C 12136.39175826 .00000089 00000-0 10000-3 0 171 2 33380 64.8451 127.8113 0028395 322.2612 181.4792 2.13102753 28292 COSMOS 2447 (727) 1 33466U 08067A 12136.72733310 -.00000060 00000-0 00000+0 0 9572 2 33466 64.1770 247.3419 0003058 254.8597 248.3342 2.13102166 26360 COSMOS 2449 (729) 1 33467U 08067B 12135.63243951 -.00000059 00000-0 10000-3 0 9628 2 33467 64.1657 247.3522 0002916 284.2078 234.5409 2.13101962 26367 COSMOS 2448 (728) 1 33468U 08067C 12136.97313426 -.00000059 00000-0 10000-3 0 9543 2 33468 64.1689 247.3112 0004182 312.8455 62.6191 2.13101470 26386 COSMOS 2456 (730) 1 36111U 09070A 12136.95063499 -.00000059 00000-0 00000+0 0 7011 2 36111 64.4047 247.4507 0004438 325.5256 79.3093 2.13101915 18828 COSMOS 2457 (733) 1 36112U 09070B 12136.37187110 -.00000060 00000-0 00000+0 0 6858 2 36112 64.3869 247.4308 0007223 152.5693 303.3286 2.13101555 18810 COSMOS 2458 (734) 1 36113U 09070C 12136.22298854 -.00000060 00000-0 10000-3 0 6913 2 36113 64.3911 247.4315 0001553 48.5592 338.3829 2.13102007 18813 COSMOS 2459 (731) 1 36400U 10007A 12136.31338686 .00000089 00000-0 10000-3 0 6282 2 36400 64.8130 127.5760 0032746 349.0065 94.0338 2.13102640 17165 COSMOS 2461 (735) 1 36401U 10007B 12137.26100769 .00000085 00000-0 10000-3 0 6261 2 36401 64.8060 127.5389 0002490 71.3132 288.9789 2.13102685 17183 COSMOS 2460 (732) 1 36402U 10007C 12136.85099807 .00000087 00000-0 10000-3 0 6347 2 36402 64.7958 127.5483 0002767 271.1223 178.6824 2.13102323 17175 COSMOS 2466 (738) 1 37137U 10041A 12136.84140689 -.00000072 00000-0 10000-3 0 4944 2 37137 65.0538 8.0724 0021630 148.5071 233.1249 2.13102385 13259 COSMOS 2465 (737) 1 37138U 10041B 12137.24578749 -.00000070 00000-0 00000+0 0 5047 2 37138 65.0691 8.1015 0034653 165.0179 347.5226 2.13103007 13253 COSMOS 2464 (736) 1 37139U 10041C 12137.15035177 -.00000070 00000-0 00000+0 0 4905 2 37139 65.0714 8.0930 0022154 16.1880 197.8272 2.13102922 13255 COSMOS 2471 (701K) 1 37372U 11009A 12136.20161015 .00000090 00000-0 10000-3 0 3607 2 37372 64.8069 127.5021 0007125 251.2958 164.1403 2.13109625 9447 COSMOS 2474 (742) 1 37829U 11055A 12137.00974907 -.00000059 00000-0 00000+0 0 1885 2 37829 64.7239 247.2453 0007309 266.4662 49.3815 2.13101900 4810 COSMOS 2476 (744) 1 37867U 11064A 12135.78666146 -.00000059 00000-0 00000-0 0 1570 2 37867 64.7043 247.4066 0015728 261.7479 240.8560 2.13102101 4140 COSMOS 2477 (745) 1 37868U 11064B 12135.43434973 -.00000057 00000-0 00000-0 0 1606 2 37868 64.7136 247.4436 0013934 263.4028 149.0036 2.13101906 4095 COSMOS 2475 (743) 1 37869U 11064C 12136.37382329 -.00000060 00000-0 10000-3 0 1482 2 37869 64.7196 247.3951 0020079 282.1764 356.0537 2.13101988 4115 COSMOS 2478 (746) 1 37938U 11071A 12136.43743975 .00000089 00000-0 00000+0 0 1397 2 37938 64.8256 127.6768 0014224 249.8041 152.3240 2.13102501 3736